Tracking 19146 objects as of 24-Apr-2018
HD Live streaming from Space Station
objects crossing your sky now

COSMOS 792

Track COSMOS 792 now!
10-day predictions
COSMOS 792 is classified as:


NORAD ID: 8608
Int'l Code: 1976-008B
Perigee: 1,442.4 km
Apogee: 1,497.7 km
Inclination: 74.1 °
Period: 115.2 minutes
Semi major axis: 7841 km
RCS: 0.6892 m2 (medium)
Launch date: January 28, 1976
Source: Commonwealth of Independent States (former USSR) (CIS)
Launch site: PLESETSK MISSILE AND SPACE COMPLEX (PKMTR)
aabbcc
Your satellite tracking list
Your tracking list is empty




NASA's NSSDC Master Catalog

Two Line Element Set (TLE):
1  8608U 76008B   18113.59391034 -.00000017 +00000-0 -55658-5 0  9995
2  8608 074.0559 337.0513 0035224 288.7305 098.0515 12.50375284927828
Source of the keplerian elements: AFSPC